Location: Orange Harbor Mobile Home Park
(26.6923°N, 81.7937°W)
Time: 07:36:09
(UTC+00:00)

Cosmos 2263 Rocket - Pass Details

Date: 19 September 2020
Orbit: 822 x 850 km, 71.0° (Epoch: 29 October)

Event Time Altitude Azimuth Distance (km) Brightness Sun altitude
Rises 09:30:29 0° 351° (N) 3,396 5.4 -23.8°
Reaches altitude 10° 09:33:06 10° 360° (N) 2,462 4.8 -23.3°
Maximum altitude 09:38:20 38° 67° (ENE) 1,274 3.7 -22.1°
Drops below altitude 10° 09:43:33 10° 135° (SE) 2,465 5.0 -21.0°
Sets 09:46:10 0° 143° (SE) 3,399 5.7 -20.4°
